SLI338 MMCZ-MMUN

Flight info

Callsign SLI338
Flight time 0h 22m
Altitude 6000
Route CZM7C CZM B879 TEFMO/N0273F050 B879 CUN
Aircraft B738/M-SDE2E3FGHIRWXY/LB1

Departure

Time 2026-05-08 00:43
Airport Cozumel International Airport (MMCZ)

Arrival

Time 2026-05-08 01:05
Airport Cancún International Airport (MMUN)
Time Latitude Longitude Altitude Speed Heading
2026-05-08 00:26 20.51171 -86.92915 24 ft 0 kts 207°
2026-05-08 00:39 20.51172 -86.92914 24 ft 1 kts 207°
2026-05-08 00:39 20.51199 -86.92900 24 ft 2 kts 206°
2026-05-08 00:39 20.51187 -86.92913 28 ft 9 kts 237°
2026-05-08 00:40 20.51239 -86.93035 26 ft 26 kts 313°
2026-05-08 00:40 20.51402 -86.93066 23 ft 25 kts 342°
2026-05-08 00:40 20.51554 -86.93137 22 ft 23 kts 325°
2026-05-08 00:40 20.51663 -86.93264 19 ft 26 kts 302°
2026-05-08 00:41 20.51746 -86.93439 22 ft 26 kts 300°
2026-05-08 00:41 20.51833 -86.93600 21 ft 24 kts 299°
2026-05-08 00:41 20.51908 -86.93750 23 ft 23 kts 292°
2026-05-08 00:41 20.51940 -86.93909 26 ft 19 kts 265°
2026-05-08 00:42 20.51965 -86.93988 23 ft 12 kts
2026-05-08 00:42 20.51969 -86.93901 23 ft 30 kts 110°
2026-05-08 00:42 20.51727 -86.93370 22 ft 126 kts 115°
2026-05-08 00:42 20.51235 -86.92267 179 ft 194 kts 115°
2026-05-08 00:43 20.50646 -86.90829 828 ft 225 kts 114°
2026-05-08 00:43 20.50040 -86.89410 2411 ft 201 kts 116°
2026-05-08 00:43 20.49426 -86.88046 3241 ft 213 kts 116°
2026-05-08 00:43 20.48745 -86.86541 3537 ft 248 kts 116°
2026-05-08 00:44 20.47956 -86.84837 4110 ft 265 kts 116°
2026-05-08 00:44 20.47174 -86.83093 5298 ft 258 kts 115°
2026-05-08 00:44 20.46678 -86.81927 5664 ft 262 kts 115°
2026-05-08 00:44 20.45672 -86.79561 5974 ft 261 kts 115°
2026-05-08 00:45 20.45175 -86.78401 5982 ft 258 kts 115°
2026-05-08 00:45 20.44149 -86.76848 6003 ft 261 kts 142°
2026-05-08 00:45 20.41944 -86.75714 5996 ft 273 kts 168°
2026-05-08 00:45 20.40068 -86.75799 6016 ft 274 kts 193°
2026-05-08 00:46 20.38873 -86.76340 6008 ft 281 kts 210°
2026-05-08 00:46 20.37476 -86.77782 6011 ft 287 kts 235°
2026-05-08 00:46 20.36784 -86.79787 6007 ft 293 kts 262°
2026-05-08 00:46 20.36988 -86.81935 6006 ft 295 kts 289°
2026-05-08 00:47 20.38089 -86.83757 6008 ft 294 kts 317°
2026-05-08 00:47 20.39773 -86.84976 6021 ft 292 kts 333°
2026-05-08 00:47 20.41570 -86.85995 6013 ft 293 kts 333°
2026-05-08 00:47 20.43370 -86.87006 6013 ft 293 kts 334°
2026-05-08 00:48 20.45177 -86.88021 6003 ft 294 kts 333°
2026-05-08 00:48 20.46985 -86.89054 6009 ft 295 kts 333°
2026-05-08 00:48 20.48798 -86.90096 6012 ft 296 kts 333°
2026-05-08 00:48 20.50618 -86.91134 6012 ft 296 kts 336°
2026-05-08 00:49 20.52553 -86.91853 6019 ft 295 kts 348°
2026-05-08 00:49 20.54512 -86.92387 6003 ft 293 kts 348°
2026-05-08 00:49 20.56493 -86.92896 6011 ft 292 kts 349°
2026-05-08 00:49 20.58466 -86.93398 6007 ft 291 kts 348°
2026-05-08 00:50 20.60426 -86.93919 6001 ft 288 kts 348°
2026-05-08 00:50 20.62375 -86.94450 6005 ft 291 kts 347°
2026-05-08 00:50 20.64351 -86.94957 6005 ft 292 kts 349°
2026-05-08 00:50 20.66318 -86.95489 6011 ft 290 kts 348°
2026-05-08 00:51 20.68264 -86.96041 5986 ft 288 kts 347°
2026-05-08 00:51 20.70214 -86.96580 6015 ft 290 kts 347°
2026-05-08 00:51 20.72177 -86.97126 6002 ft 292 kts 347°
2026-05-08 00:51 20.74113 -86.97662 6008 ft 291 kts 347°
2026-05-08 00:52 20.76084 -86.98171 6005 ft 291 kts 354°
2026-05-08 00:52 20.78085 -86.98116 6018 ft 287 kts 14°
2026-05-08 00:52 20.79954 -86.97428 6015 ft 283 kts 28°
2026-05-08 00:52 20.81731 -86.96526 6017 ft 282 kts 29°
2026-05-08 00:53 20.83499 -86.95609 6011 ft 283 kts 29°
2026-05-08 00:53 20.85267 -86.94694 6016 ft 282 kts 29°
2026-05-08 00:53 20.87040 -86.93781 6013 ft 282 kts 28°
2026-05-08 00:53 20.88813 -86.92871 6016 ft 283 kts 28°
2026-05-08 00:54 20.90582 -86.91967 6021 ft 282 kts 29°
2026-05-08 00:54 20.92353 -86.91061 6022 ft 282 kts 28°
2026-05-08 00:54 20.94104 -86.90172 6021 ft 280 kts 28°
2026-05-08 00:54 20.95844 -86.89286 5952 ft 273 kts 28°
2026-05-08 00:55 20.97560 -86.88415 5785 ft 268 kts 28°
2026-05-08 00:55 20.99232 -86.87566 5551 ft 265 kts 28°
2026-05-08 00:55 21.00897 -86.86768 5292 ft 265 kts 20°
2026-05-08 00:55 21.02735 -86.86644 5037 ft 268 kts 352°
2026-05-08 00:56 21.04472 -86.87343 4793 ft 269 kts 329°
2026-05-08 00:56 21.05999 -86.88468 4582 ft 263 kts 325°
2026-05-08 00:56 21.07463 -86.89602 4323 ft 256 kts 325°
2026-05-08 00:56 21.08879 -86.90697 4069 ft 245 kts 326°
2026-05-08 00:57 21.10214 -86.91717 3862 ft 222 kts 326°
2026-05-08 00:57 21.11359 -86.92589 3767 ft 193 kts 326°
2026-05-08 00:57 21.12416 -86.93427 3663 ft 187 kts 324°
2026-05-08 00:57 21.13461 -86.94279 3594 ft 190 kts 325°
2026-05-08 00:58 21.14542 -86.95102 3523 ft 190 kts 327°
2026-05-08 00:58 21.15630 -86.95915 3440 ft 191 kts 327°
2026-05-08 00:58 21.16715 -86.96728 3351 ft 190 kts 327°
2026-05-08 00:58 21.17802 -86.97541 3282 ft 190 kts 327°
2026-05-08 00:59 21.19150 -86.99773 3307 ft 184 kts 270°
2026-05-08 00:59 21.19263 -87.01145 3136 ft 191 kts 271°
2026-05-08 00:59 21.19045 -87.02479 3116 ft 178 kts 233°
2026-05-08 01:00 21.18149 -87.03263 3132 ft 167 kts 192°
2026-05-08 01:00 21.17037 -87.03266 3137 ft 158 kts 157°
2026-05-08 01:00 21.16150 -87.02608 3154 ft 156 kts 138°
2026-05-08 01:00 21.15306 -87.01867 3089 ft 158 kts 139°
2026-05-08 01:01 21.14453 -87.01118 2898 ft 157 kts 139°
2026-05-08 01:01 21.13615 -87.00375 2722 ft 156 kts 139°
2026-05-08 01:01 21.12776 -86.99625 2538 ft 157 kts 136°
2026-05-08 01:01 21.12089 -86.98744 2351 ft 156 kts 124°
2026-05-08 01:02 21.11475 -86.97779 2145 ft 158 kts 124°
2026-05-08 01:02 21.10860 -86.96793 1933 ft 157 kts 125°
2026-05-08 01:02 21.10272 -86.95848 1764 ft 147 kts 125°
2026-05-08 01:02 21.09708 -86.94943 1541 ft 144 kts 125°
2026-05-08 01:03 21.09153 -86.94051 1350 ft 144 kts 125°
2026-05-08 01:03 21.08600 -86.93161 1158 ft 146 kts 125°
2026-05-08 01:03 21.08038 -86.92260 960 ft 143 kts 125°
2026-05-08 01:03 21.07496 -86.91388 771 ft 138 kts 125°
2026-05-08 01:04 21.06961 -86.90530 596 ft 139 kts 125°
2026-05-08 01:04 21.06423 -86.89666 414 ft 139 kts 124°
2026-05-08 01:04 21.05887 -86.88803 226 ft 139 kts 124°
2026-05-08 01:04 21.05351 -86.87942 46 ft 139 kts 123°
2026-05-08 01:05 21.04868 -86.87160 37 ft 104 kts 123°
2026-05-08 01:05 21.04540 -86.86655 36 ft 57 kts 124°
2026-05-08 01:05 21.04407 -86.86476 38 ft 25 kts 134°
2026-05-08 01:05 21.04270 -86.86377 39 ft 23 kts 155°
2026-05-08 01:06 21.04130 -86.86301 41 ft 22 kts 150°
2026-05-08 01:06 21.03992 -86.86255 49 ft 21 kts 200°
2026-05-08 01:06 21.03878 -86.86325 63 ft 17 kts 211°
2026-05-08 01:06 21.03768 -86.86407 53 ft 21 kts 212°
2026-05-08 01:07 21.03629 -86.86501 40 ft 25 kts 212°
2026-05-08 01:07 21.03571 -86.86555 42 ft 10 kts 247°
2026-05-08 01:07 21.03596 -86.86619 39 ft 11 kts 327°
2026-05-08 01:07 21.03643 -86.86671 41 ft 9 kts 304°
2026-05-08 01:08 21.03678 -86.86727 42 ft 2 kts 307°
2026-05-08 01:08 21.03679 -86.86727 42 ft 0 kts 307°